Regional Weather Roundup
Issued by NWS Sioux Falls, SD

Home | Current Version | Previous Version | Text Only | Print | Product List | Glossary On
Versions: 1 2 3 4 5 6 7 8 9 10 11 12 13 14 15 16 17 18 19 20 21 22 23 24 25 26 27 28 29 30 31 32 33 34 35 36 37 38 39 40 41 42 43 44 45 46 47 48 49 50
113
ASUS43 KFSD 270002
RWRFSD

WEATHER ROUNDUP FOR SE SOUTH DAKOTA/SW MINNESOTA/NW IOWA
NATIONAL WEATHER SERVICE SIOUX FALLS SD
700 PM CDT SUN MAR 26 2017

NOTE: "FAIR" INDICATES FEW OR NO CLOUDS BELOW 12,000 FEET WITH NO
SIGNIFICANT WEATHER AND OR OBSTRUCTIONS TO VISIBILITY.


SDZ038>040-050-052>070-270100-
SOUTHEAST SOUTH DAKOTA

CITY           SKY/WX    TMP DP  RH WIND       PRES   REMARKS
BROOKINGS      MOCLDY    43  38  82 N7        29.91F
CHAMBERLAIN    NOT AVBL
HURON          PTCLDY    47  38  71 N5        29.93S
6HR MIN TEMP:  43; 6HR MAX TEMP:  51;

MADISON        CLOUDY    43  43 100 N6        29.92S
MITCHELL       CLOUDY    48  39  71 N6        29.93S
6HR MIN TEMP:  43; 6HR MAX TEMP:  49;

SIOUX FALLS    CLOUDY    46  39  76 N5        29.92S
6HR MIN TEMP:  44; 6HR MAX TEMP:  49;

WINNER         FAIR      49  38  65 CALM      29.93R
YANKTON        CLOUDY    48  39  71 N3        29.91S
$$

MNZ071-072-080-081-089-090-097-098-270100-
SOUTHWEST MINNESOTA

CITY           SKY/WX    TMP DP  RH WIND       PRES   REMARKS
FAIRMONT       CLOUDY    41  38  89 N6        29.92S
JACKSON        CLOUDY    41  37  87 VRB6      29.92R
MARSHALL       CLOUDY    43  39  86 NW9       29.94S
6HR MIN TEMP:  40; 6HR MAX TEMP:  44;

MONTEVIDEO     CLOUDY    46  37  71 N3        29.95S
PIPESTONE      CLOUDY    43  36  75 NE8       29.91F
REDWOOD FALLS  CLOUDY    45  36  70 N6        29.93S
TRACY          CLOUDY    43  39  86 N5        29.94R
WINDOM         MOCLDY    43  39  87 NW9       29.92R
WORTHINGTON    CLOUDY    41  38  89 N10       29.92S
$$

IAZ001>003-012>014-020>022-031-032-NEZ013-014-SDZ071-270100-
NORTHWEST IOWA

CITY           SKY/WX    TMP DP  RH WIND       PRES   REMARKS
CHEROKEE       CLOUDY    46  41  84 N9        29.90S
ESTHERVILLE    CLOUDY    41  39  93 N9        29.91S
LE MARS        CLOUDY    46  41  81 N9        29.91S
ORANGE CITY    CLOUDY    46  41  81 N7        29.90F
SHELDON        CLOUDY    45  45 100 N8        29.90S
SIOUX CITY     CLOUDY    48  40  73 N9        29.90S
6HR MIN TEMP:  44; 6HR MAX TEMP:  48;

SPENCER        CLOUDY    44  39  82 N8        29.92R
6HR MIN TEMP:  44; 6HR MAX TEMP:  46;

STORM LAKE       N/A     45  41  87 MISG      29.90S
$$

ABBREVIATIONS USED IN REMARKS
   TC - TEMPERATURE IN CELSIUS
  WCI - WIND CHILL INDEX
   HX - HEAT INDEX
  VSB - VISIBILITY





USA.gov is the U.S. government's official web portal to all federal, state and local government web resources and services.